FW8288 Weather Reports


Display with metric or nautical units.
time (UTC)temp
F
wind
direction
speed
MPH
gust
MPH
rain 1hr
in
rain 24hr
in
rain mn
in
humidity
%
barometer
mb
20260902093104 80 166 0.0 1.0 0.00 0.00 0.00 87 1014.9
20260902091607 80 0 0.0 0.0 0.00 0.00 0.00 87 1014.8
20260902090128 80 166 0.0 4.0 0.00 0.00 0.00 86 1014.7
20260902084605 80 0 0.0 4.0 0.00 0.00 0.00 86 1014.6
20260902083117 80 166 0.0 4.0 0.00 0.00 0.00 85 1014.7
20260902081605 80 0 0.0 3.0 0.00 0.00 0.00 85 1014.8
20260902080110 80 0 0.0 2.0 0.00 0.00 0.00 84 1014.7
20260902074600 81 0 0.0 0.0 0.00 0.00 0.00 84 1014.8
20260902073101 81 0 0.0 0.0 0.00 0.00 0.00 84 1014.8
20260902071602 81 0 0.0 0.0 0.00 0.00 0.00 83 1015.0
20260902070107 81 0 0.0 3.0 0.00 0.00 0.00 83 1014.8
20260902064607 81 0 0.0 2.0 0.00 0.00 0.00 82 1014.8
20260902063100 81 166 0.0 2.0 0.00 0.00 0.00 81 1014.6
20260902061624 81 0 0.0 1.0 0.00 0.00 0.00 80 1014.6
20260902060104 81 0 0.0 0.0 0.00 0.00 0.00 80 1014.7
20260902054605 81 0 0.0 0.0 0.00 0.00 0.00 80 1015.0
20260902053105 81 0 0.0 0.0 0.00 0.00 0.00 82 1015.0
20260902051605 81 0 0.0 0.0 0.00 0.00 0.00 82 1014.9
20260902050107 81 0 0.0 0.0 0.00 0.00 0.00 82 1014.9
20260902044606 81 0 0.0 0.0 0.00 0.00 0.00 81 1015.0
20260902043103 81 0 0.0 0.0 0.00 0.00 0.00 81 1014.9
20260902041609 81 0 0.0 0.0 0.00 0.00 0.00 82 1014.9
20260902040106 81 0 0.0 0.0 0.00 0.00 0.00 80 1015.1
20260902034603 81 0 0.0 0.0 0.00 0.00 0.00 80 1015.2
20260902033114 81 0 0.0 0.0 0.00 0.00 0.00 79 1015.2
20260902031606 82 0 0.0 0.0 0.00 0.00 0.00 78 1015.1
20260902030116 82 0 0.0 0.0 0.00 0.00 0.00 78 1014.8
20260902024604 82 0 0.0 0.0 0.00 0.00 0.00 78 1014.5
20260902023114 82 0 0.0 0.0 0.00 0.00 0.00 77 1014.4
20260902021619 82 0 0.0 0.0 0.00 0.00 0.00 77 1014.3
20260902020104 82 0 0.0 0.0 0.00 0.00 0.00 77 1014.0
20260902014603 82 0 0.0 0.0 0.00 0.00 0.00 75 1013.9
20260902013104 83 0 0.0 0.0 0.00 0.00 0.00 74 1013.5
20260902011602 83 0 0.0 0.0 0.00 0.00 0.00 73 1013.6
20260902010115 84 0 0.0 0.0 0.00 0.00 0.00 73 1013.7
20260902004607 84 166 0.0 2.0 0.00 0.00 0.00 72 1013.8
20260902003104 84 0 0.0 2.0 0.00 0.00 0.00 72 1013.8
20260902001610 85 166 1.0 3.0 0.00 0.00 0.00 74 1013.6
20260902000114 85 166 2.0 4.0 0.00 0.00 0.00 73 1013.6
20260901234617 85 166 3.0 5.0 0.00 0.00 0.00 72 1013.6
20260901233104 87 166 4.0 6.0 0.00 0.00 0.00 70 1013.5
20260901231602 88 166 2.0 4.0 0.00 0.00 0.00 62 1013.5
20260901230138 88 166 2.0 5.0 0.00 0.00 0.00 61 1013.6
20260901224602 89 166 1.0 4.0 0.00 0.00 0.00 60 1013.7
20260901223119 89 166 0.0 2.0 0.00 0.00 0.00 59 1013.8
20260901221604 89 166 1.0 3.0 0.00 0.00 0.00 59 1013.7
20260901220104 89 166 1.0 3.0 0.00 0.00 0.00 58 1013.8
20260901214600 89 166 1.0 2.0 0.00 0.00 0.00 59 1014.1
20260901213101 89 166 1.0 4.0 0.00 0.00 0.00 59 1014.3
20260901211601 89 166 2.0 5.0 0.00 0.00 0.00 58 1014.2
20260901210105 90 166 1.0 5.0 0.00 0.00 0.00 57 1014.0
20260901204602 90 166 3.0 6.0 0.00 0.00 0.00 56 1014.1
20260901203110 91 166 3.0 8.0 0.00 0.00 0.00 57 1014.4
20260901201607 93 166 3.0 7.0 0.00 0.00 0.00 54 1014.6
20260901200108 93 166 4.0 7.0 0.00 0.00 0.00 56 1014.8
20260901194607 93 166 1.0 5.0 0.00 0.00 0.00 55 1014.9
20260901193106 93 166 2.0 5.0 0.00 0.00 0.00 54 1015.0
20260901191604 94 166 2.0 7.0 0.00 0.00 0.00 56 1015.1
20260901190110 93 166 0.0 5.0 0.00 0.00 0.00 58 1015.3
20260901184607 91 166 2.0 4.0 0.00 0.00 0.00 59 1015.5
20260901183107 92 166 1.0 5.0 0.00 0.00 0.00 60 1015.6
20260901181604 92 166 2.0 5.0 0.00 0.00 0.00 59 1015.7
20260901174607 90 166 2.0 5.0 0.00 0.00 0.00 64 1016.1
20260901173112 89 166 2.0 5.0 0.00 0.00 0.00 67 1016.6
20260901171620 87 166 2.0 5.0 0.00 0.00 0.00 69 1017.0
20260901170104 87 166 1.0 4.0 0.00 0.00 0.00 71 1017.2
20260901164635 87 166 0.0 2.0 0.00 0.00 0.00 72 1017.1
20260901163104 86 0 0.0 4.0 0.00 0.00 0.00 76 1017.1
20260901161607 86 166 1.0 4.0 0.00 0.00 0.00 75 1017.2
20260901154605 85 0 0.0 4.0 0.00 0.00 0.00 78 1017.2
20260901153103 85 0 0.0 2.0 0.00 0.00 0.00 79 1017.1
20260901151602 84 166 2.0 5.0 0.00 0.00 0.00 80 1017.1
20260901150105 84 166 2.0 5.0 0.00 0.00 0.00 79 1017.0
20260901144605 84 166 0.0 3.0 0.00 0.00 0.00 80 1017.3
20260901143103 83 0 1.0 2.0 0.00 0.00 0.00 81 1017.3
20260901141610 82 0 0.0 0.0 0.00 0.00 0.00 85 1017.2
20260901140106 81 0 0.0 0.0 0.00 0.00 0.00 87 1017.4
20260901134604 80 0 0.0 0.0 0.00 0.00 0.00 87 1017.4
20260901133108 80 0 0.0 0.0 0.00 0.00 0.00 88 1017.3
20260901131613 80 0 0.0 0.0 0.00 0.00 0.00 89 1017.0
20260901130105 79 0 0.0 0.0 0.00 0.00 0.00 91 1016.7
20260901124605 78 0 0.0 0.0 0.00 0.00 0.00 92 1016.3
20260901123102 78 0 0.0 0.0 0.00 0.00 0.00 92 1016.3
20260901121612 78 0 0.0 0.0 0.00 0.00 0.00 92 1016.1
20260901120124 78 0 0.0 0.0 0.00 0.00 0.00 92 1015.8
20260901114604 78 0 0.0 0.0 0.00 0.00 0.00 92 1015.9
20260901113105 78 0 0.0 0.0 0.00 0.00 0.00 92 1015.7
20260901111615 78 0 0.0 0.0 0.00 0.00 0.00 92 1015.8
20260901110106 78 0 0.0 0.0 0.00 0.00 0.00 92 1015.9
20260901104605 78 0 0.0 0.0 0.00 0.00 0.00 91 1015.7
20260901103124 78 0 0.0 0.0 0.00 0.00 0.00 91 1015.5
20260901101604 79 0 0.0 0.0 0.00 0.00 0.00 91 1015.6
20260901100106 79 0 0.0 0.0 0.00 0.00 0.00 90 1015.6
20260901094605 79 0 0.0 0.0 0.00 0.00 0.00 90 1015.8